OE3PDB-4 Weather Reports


time (UTC)temp
C
wind
direction
speed
KPH
gust
KPH
rain 1hr
cm
rain 24hr
cm
rain mn
cm
humidity
%
barometer
mb
20260503034005 10 292 0.0 0.0 0.00 0.00 0.00 60 1018.4
20260503033005 12 292 0.0 0.0 0.00 0.00 0.00 59 1018.4
20260503032005 12 292 0.0 0.0 0.00 0.00 0.00 60 1018.3
20260503031005 12 292 0.0 0.0 0.00 0.00 0.00 62 1018.4
20260503030005 9 292 0.0 0.0 0.00 0.00 0.00 68 1018.3
20260503025005 9 292 0.0 0.0 0.00 0.00 0.00 68 1018.3
20260503024005 8 292 0.0 0.0 0.00 0.00 0.00 66 1018.2
20260503023005 8 292 0.0 0.0 0.00 0.00 0.00 65 1018.3
20260503022005 8 292 0.0 0.0 0.00 0.00 0.00 65 1018.3
20260503021005 8 292 0.0 0.0 0.00 0.00 0.00 65 1018.1
20260503020005 8 292 0.0 0.0 0.00 0.00 0.00 65 1018.2
20260503015006 8 292 0.0 0.0 0.00 0.00 0.00 64 1018.2
20260503014006 8 292 0.0 0.0 0.00 0.00 0.00 64 1018.1
20260503013006 8 292 0.0 0.0 0.00 0.00 0.00 64 1018.1
20260503012006 9 292 0.0 0.0 0.00 0.00 0.00 64 1018.2
20260503011006 9 292 0.0 0.0 0.00 0.00 0.00 63 1018.4
20260503010006 9 292 0.0 0.0 0.00 0.00 0.00 63 1018.4
20260503005006 9 292 0.0 0.0 0.00 0.00 0.00 63 1018.3
20260503004006 10 292 0.0 0.0 0.00 0.00 0.00 62 1018.4
20260503003006 10 292 0.0 0.0 0.00 0.00 0.00 62 1018.4
20260503002006 10 292 0.0 0.0 0.00 0.00 0.00 62 1018.4
20260503001006 10 292 0.0 0.0 0.00 0.00 0.00 61 1018.5
20260503000006 10 292 0.0 0.0 0.00 0.00 0.00 61 1018.8
20260502235006 10 292 0.0 0.0 0.00 0.00 0.00 61 1018.9
20260502234006 10 292 0.0 0.0 0.00 0.00 0.00 60 1018.9
20260502233006 10 292 0.0 0.0 0.00 0.00 0.00 60 1019.0
20260502232006 11 292 0.0 0.0 0.00 0.00 0.00 59 1019.1
20260502231006 11 292 0.0 0.0 0.00 0.00 0.00 58 1019.3
20260502230006 11 292 0.0 0.0 0.00 0.00 0.00 58 1019.3
20260502225006 11 292 0.0 0.0 0.00 0.00 0.00 58 1019.4
20260502224006 11 292 0.0 0.0 0.00 0.00 0.00 58 1019.3
20260502223006 11 292 0.0 0.0 0.00 0.00 0.00 57 1019.4
20260502222006 12 292 0.0 0.0 0.00 0.00 0.00 56 1019.4
20260502221006 12 292 0.0 0.0 0.00 0.00 0.00 56 1019.5
20260502220006 12 292 0.0 0.0 0.00 0.00 0.00 55 1019.4
20260502215006 12 292 0.0 0.0 0.00 0.00 0.00 55 1019.4
20260502214006 12 292 0.0 0.0 0.00 0.00 0.00 55 1019.4
20260502213006 12 292 0.0 0.0 0.00 0.00 0.00 54 1019.5
20260502212006 13 292 0.0 0.0 0.00 0.00 0.00 53 1019.4
20260502211006 13 292 0.0 0.0 0.00 0.00 0.00 52 1019.7
20260502210006 13 292 0.0 0.0 0.00 0.00 0.00 52 1019.7
20260502205006 13 292 0.0 0.0 0.00 0.00 0.00 52 1019.8
20260502204006 13 292 0.0 0.0 0.00 0.00 0.00 51 1019.8
20260502203006 14 270 0.0 0.0 0.00 0.00 0.00 50 1019.8
20260502202006 14 270 0.0 0.0 0.00 0.00 0.00 50 1019.8
20260502201006 14 270 0.0 0.0 0.00 0.00 0.00 49 1019.8
20260502200006 15 270 0.0 0.0 0.00 0.00 0.00 48 1019.8
20260502195006 15 270 0.0 0.0 0.00 0.00 0.00 48 1019.9
20260502194006 15 270 0.0 0.0 0.00 0.00 0.00 47 1019.9
20260502193006 15 247 0.0 0.0 0.00 0.00 0.00 45 1019.9
20260502192006 16 247 0.0 0.0 0.00 0.00 0.00 45 1019.9
20260502191006 16 247 0.0 0.0 0.00 0.00 0.00 44 1019.8
20260502190006 16 247 0.0 0.0 0.00 0.00 0.00 44 1019.8
20260502185006 17 247 0.0 0.0 0.00 0.00 0.00 42 1019.8
20260502184006 17 247 0.0 0.0 0.00 0.00 0.00 42 1019.7
20260502183006 18 247 0.0 0.0 0.00 0.00 0.00 41 1019.6
20260502182006 18 247 0.0 0.0 0.00 0.00 0.00 40 1019.4
20260502181006 20 247 0.0 0.0 0.00 0.00 0.00 40 1019.1
20260502164006 23 247 0.0 0.0 0.00 0.00 0.00 29 1019.3
20260502163006 24 247 0.0 0.0 0.00 0.00 0.00 29 1019.3
20260502162006 25 247 0.0 0.0 0.00 0.00 0.00 28 1019.4
20260502161006 25 225 0.0 0.0 0.00 0.00 0.00 27 1019.4
20260502152006 26 292 0.0 0.0 0.00 0.00 0.00 26 1019.9
20260502151006 26 292 1.6 1.6 0.00 0.00 0.00 26 1020.1
20260502123007 25 292 0.0 0.0 0.00 0.00 0.00 27 1021.6
20260502122007 26 157 1.6 1.6 0.00 0.00 0.00 27 1021.9
20260502121007 25 202 0.0 0.0 0.00 0.00 0.00 29 1022.0
20260502115007 25 180 0.0 0.0 0.00 0.00 0.00 30 1022.2
20260502114007 24 202 0.0 0.0 0.00 0.00 0.00 30 1022.2
20260502113007 24 270 0.0 0.0 0.00 0.00 0.00 31 1022.3
20260502112007 24 315 0.0 3.2 0.00 0.00 0.00 31 1022.6
20260502111007 23 315 0.0 3.2 0.00 0.00 0.00 32 1022.6
20260502110007 23 270 0.0 0.0 0.00 0.00 0.00 33 1022.8
20260502105007 23 225 0.0 0.0 0.00 0.00 0.00 32 1022.8
20260502104007 22 225 0.0 0.0 0.00 0.00 0.00 33 1022.9
20260502103007 22 225 0.0 0.0 0.00 0.00 0.00 34 1023.1
20260502102007 22 315 0.0 6.4 0.00 0.00 0.00 34 1023.1
20260502101007 22 315 4.8 4.8 0.00 0.00 0.00 35 1023.3
20260502091007 20 315 0.0 6.4 0.00 0.00 0.00 40 1023.7
20260502071007 15 315 0.0 0.0 0.00 0.00 0.00 56 1024.5
20260502070007 14 315 0.0 4.8 0.00 0.00 0.00 58 1024.6
20260502065007 14 315 3.2 3.2 0.00 0.00 0.00 60 1024.6
20260502064007 13 337 0.0 0.0 0.00 0.00 0.00 62 1024.6
20260502063007 13 337 0.0 0.0 0.00 0.00 0.00 62 1024.7
20260502062007 13 337 0.0 0.0 0.00 0.00 0.00 62 1024.7
20260502061007 13 337 0.0 0.0 0.00 0.00 0.00 62 1024.7
20260502060007 12 337 0.0 0.0 0.00 0.00 0.00 65 1024.7
20260502055007 11 337 0.0 0.0 0.00 0.00 0.00 67 1024.7
20260502054007 10 337 0.0 0.0 0.00 0.00 0.00 65 1024.7
20260502053007 11 337 0.0 0.0 0.00 0.00 0.00 64 1024.9
20260502052007 11 337 0.0 0.0 0.00 0.00 0.00 65 1024.9
20260502051007 10 337 0.0 0.0 0.00 0.00 0.00 70 1024.8
20260502050007 8 337 0.0 0.0 0.00 0.00 0.00 72 1024.7
20260502045007 7 337 0.0 0.0 0.00 0.00 0.00 71 1024.7
20260502044007 7 337 0.0 0.0 0.00 0.00 0.00 71 1024.7
20260502043007 7 337 0.0 0.0 0.00 0.00 0.00 71 1024.7
20260502042007 6 337 0.0 0.0 0.00 0.00 0.00 71 1024.6
20260502041007 6 337 0.0 0.0 0.00 0.00 0.00 71 1024.7
20260502040007 7 337 0.0 0.0 0.00 0.00 0.00 71 1024.7
20260502035007 7 337 0.0 0.0 0.00 0.00 0.00 71 1024.8